This demonstration page uses our WeatherBlox Daily Observations layout. Learn more.

Left ArrowRight Arrow

39.12711, -84.51439

Hourly Observations for June 27, 2017

Temp ( °F °C ) Dew Point ( °F °C ) Humidity (%) Winds ( mph kmh ) Pressure ( in mb ) Visibility ( mi km ) Precip ( " mm )
12:53 am 00:53 Mostly Clear 62 16.7 50 10 65 65 W 5 7 30.09 1019 10 16 0.00 0.00
1:53 am 01:53 Mostly Clear 57 13.9 52 11.1 83 83 Calm 30.09 1019 10 16 0.00 0.00
2:53 am 02:53 Clear 55 12.8 52 11.1 90 90 Calm 30.09 1019 10 16 0.00 0.00
3:53 am 03:53 Clear 54 12.2 52 11.1 93 93 Calm 30.08 1019 10 16 0.00 0.00
4:53 am 04:53 Clear 52 11.1 51 10.6 97 97 Calm 30.09 1019 10 16 0.00 0.00
5:53 am 05:53 Clear 53 11.7 51 10.6 93 93 Calm 30.11 1020 10 16 0.00 0.00
6:53 am 06:53 Sunny 53 11.7 52 11.1 96 96 Calm 30.14 1021 10 16 0.00 0.00
7:53 am 07:53 Sunny 60 15.6 54 12.2 80 80 Calm 30.14 1021 10 16 0.00 0.00
8:53 am 08:53 Sunny 64 17.8 54 12.2 70 70 N 3 6 30.15 1021 10 16 0.00 0.00
9:53 am 09:53 Sunny 66 18.9 52 11.1 61 61 VRB 6 9 30.16 1021 10 16 0.00 0.00
10:53 am 10:53 Sunny 68 20 50 10 53 53 NNE 9 15 30.15 1021 10 16 0.00 0.00
11:53 am 11:53 Mostly Sunny 69 20.6 51 10.6 53 53 WNW 9 15 30.15 1021 10 16 0.00 0.00
12:53 pm 12:53 Partly Cloudy 70 21.1 48 8.9 46 46 Calm 30.14 1021 10 16 0.00 0.00
1:53 pm 13:53 Mostly Cloudy 72 22.2 51 10.6 48 48 VRB 7 11 30.14 1021 10 16 0.00 0.00
2:53 pm 14:53 Mostly Cloudy 72 22.2 49 9.4 44 44 VRB 6 9 30.13 1020 10 16 0.00 0.00
3:53 pm 15:53 Mostly Cloudy 73 22.8 51 10.6 46 46 VRB 3 6 30.11 1020 10 16 0.00 0.00
4:53 pm 16:53 Mostly Cloudy 73 22.8 50 10 44 44 N 7 11 30.11 1020 10 16 0.00 0.00
5:53 pm 17:53 Mostly Cloudy 75 23.9 50 10 41 41 NW 6 9 30.10 1019 10 16 0.00 0.00
6:53 pm 18:53 Mostly Cloudy 74 23.3 50 10 43 43 W 3 6 30.09 1019 10 16 0.00 0.00
7:53 pm 19:53 Sunny 73 22.8 47 8.3 40 40 W 3 6 30.09 1019 10 16 0.00 0.00
8:53 pm 20:53 Mostly Sunny 68 20 52 11.1 57 57 Calm 30.09 1019 10 16 0.00 0.00
9:53 pm 21:53 Clear 61 16.1 54 12.2 78 78 Calm 30.10 1019 10 16 0.00 0.00
10:53 pm 22:53 Clear 58 14.4 53 11.7 84 84 Calm 30.11 1020 10 16 0.00 0.00
11:53 pm 23:53 Clear 56 13.3 53 11.7 90 90 Calm 30.13 1020 10 16 0.00 0.00

Powered by AerisWeather